"Timestamp","TZ","WindDir_Mean (deg)","WindSpd_Mean (km/h)","WindSpd_Min (km/h)","WindSpd_Max (km/h)","Temp_Mean (deg)","RH_Mean (%)","MSLP_Mean (hPa)","Rain_Acc (mm)","Rain_Intensity (mm/h)","Hail_Acc (hits/cm2)","Hail_Intensity (hits/cm2hr)","Solar_Mean (W/m2)"
2018/01/30 00:00:00.013,n,172,6.12,5.4,6.48,23.5,77.1,1008.12,0,0,0,0,0.02697
2018/01/30 00:01:00.000,n,167,4.32,3.6,5.4,23.5,77.1,1008.12,0,0,0,0,0.026093
2018/01/30 00:02:00.000,n,178,5.76,4.68,6.84,23.5,77.1,1008.22,0,0,0,0,0.02697
2018/01/30 00:03:00.000,n,183,4.32,3.6,5.4,23.5,77.1,1008.12,0,0,0,0,0.026093
2018/01/30 00:04:00.003,n,256,0.72,0.36,1.08,23.5,77.2,1008.12,0,0,0,0,0.021744
2018/01/30 00:05:00.000,n,233,3.96,3.24,4.68,23.5,77.2,1008.12,0,0,0,0,0.028687
2018/01/30 00:06:00.000,n,236,5.04,4.68,5.4,23.5,78,1008.12,0,0,0,0,0.02697
2018/01/30 00:07:00.000,n,239,3.96,3.6,4.32,23.5,77.9,1008.02,0,0,0,0,0.029602
2018/01/30 00:08:00.009,n,180,2.88,2.52,3.96,23.5,77.4,1008.02,0,0,0,0,0.030441
2018/01/30 00:09:00.006,n,193,5.76,4.68,6.84,23.5,77,1008.02,0,0,0,0,0.030441
2018/01/30 00:10:00.000,n,293,0.72,0.36,1.8,23.5,77.3,1008.02,0,0,0,0,0.028725
2018/01/30 00:11:00.000,n,289,7.92,6.12,10.08,23.4,77.3,1008.02,0,0,0,0,0.028725
2018/01/30 00:12:00.000,n,201,6.12,3.96,8.28,23.4,76.9,1008.02,0,0,0,0,0.02697
2018/01/30 00:13:00.000,n,147,5.04,3.24,6.48,23.4,76.9,1007.92,0,0,0,0,0.02697
2018/01/30 00:14:00.009,n,215,5.04,3.6,6.12,23.4,76.9,1008.02,0,0,0,0,0.023499
2018/01/30 00:15:00.005,n,173,11.52,10.08,12.96,23.4,76.8,1007.92,0,0,0,0,0.024376
2018/01/30 00:16:00.003,n,211,5.04,3.6,6.48,23.4,76.8,1007.92,0,0,0,0,0.025215
2018/01/30 00:17:00.000,n,223,3.24,2.52,3.6,23.4,76.8,1007.92,0,0,0,0,0.024376
2018/01/30 00:18:00.013,n,185,12.6,10.08,14.4,23.4,76.7,1007.92,0,0,0,0,0.026093
2018/01/30 00:19:00.000,n,201,6.12,5.76,6.48,23.4,76.8,1007.92,0,0,0,0,0.026093
2018/01/30 00:20:00.000,n,180,5.76,5.4,6.48,23.4,76.7,1007.82,0,0,0,0,0.025215
2018/01/30 00:21:00.000,n,178,4.32,3.6,5.04,23.4,76.8,1007.82,0,0,0,0,0.022621
2018/01/30 00:22:00.000,n,166,5.76,5.4,6.12,23.4,76.8,1007.82,0,0,0,0,0.024376
2018/01/30 00:23:00.000,n,178,12.96,11.88,14.04,23.4,76.4,1007.72,0,0,0,0,0.02697
2018/01/30 00:24:00.000,n,231,5.76,4.32,6.12,23.4,76.5,1007.72,0,0,0,0,0.023499
2018/01/30 00:25:00.008,n,200,5.76,4.32,7.56,23.4,77,1007.72,0,0,0,0,0.020866
2018/01/30 00:26:00.005,n,166,9,3.6,11.16,23.4,76.3,1007.72,0,0,0,0,0.030441
2018/01/30 00:27:00.002,n,239,3.24,1.08,4.32,23.4,77.2,1007.72,0,0,0,0,0.027847
2018/01/30 00:28:00.000,n,249,3.6,2.88,3.96,23.4,76.9,1007.62,0,0,0,0,0.025215
2018/01/30 00:29:00.000,n,198,3.96,2.88,4.68,23.4,76.7,1007.62,0,0,0,0,0.024376
2018/01/30 00:30:00.000,n,191,3.6,2.16,4.68,23.4,76.6,1007.62,0,0,0,0,0.024376
2018/01/30 00:31:00.007,n,164,4.68,3.24,6.48,23.3,76.5,1007.62,0,0,0,0,0.024376
2018/01/30 00:32:00.004,n,218,3.6,1.44,4.68,23.3,76.3,1007.52,0,0,0,0,0.028725
2018/01/30 00:33:00.001,n,194,10.08,9.72,10.8,23.3,76.3,1007.52,0,0,0,0,0.024376
2018/01/30 00:34:00.000,n,315,2.88,0.72,5.04,23.3,76.4,1007.52,0,0,0,0,0.021782
2018/01/30 00:35:00.013,n,188,3.24,2.88,3.96,23.3,76.3,1007.52,0,0,0,0,0.023499
2018/01/30 00:36:00.010,n,175,8.28,6.48,9.72,23.3,76.2,1007.42,0,0,0,0,0.021782
2018/01/30 00:37:00.000,n,172,6.12,4.68,8.28,23.3,76.3,1007.42,0,0,0,0,0.019989
2018/01/30 00:38:00.000,n,192,5.4,5.04,6.12,23.3,76.4,1007.42,0,0,0,0,0.025215
2018/01/30 00:39:00.000,n,168,6.48,4.68,9.72,23.3,76.5,1007.52,0,0,0,0,0.027847
2018/01/30 00:40:00.000,n,194,7.92,7.2,8.64,23.3,76.5,1007.42,0,0,0,0,0.025215
2018/01/30 00:41:00.000,n,156,7.92,6.84,8.64,23.2,76.1,1007.42,0,0,0,0,0.020866
2018/01/30 00:42:00.008,n,215,6.12,4.32,7.2,23.2,76.1,1007.42,0,0,0,0,0.01915
2018/01/30 00:43:00.006,n,192,5.76,4.68,6.48,23.2,76.4,1007.42,0,0,0,0,0.027008
2018/01/30 00:44:00.000,n,220,3.96,3.6,3.96,23.2,76.3,1007.42,0,0,0,0,0.027008
2018/01/30 00:45:00.013,n,165,4.32,2.88,4.68,23.2,76.4,1007.42,0,0,0,0,0.029602
2018/01/30 00:46:00.000,n,175,4.68,3.6,5.4,23.2,76.5,1007.42,0,0,0,0,0.022659
2018/01/30 00:47:00.000,n,169,8.64,7.56,10.440002,23.2,76.3,1007.42,0,0,0,0,0.025253
2018/01/30 00:48:00.005,n,152,1.44,1.08,2.16,23.2,76.3,1007.32,0,0,0,0,0.027008
2018/01/30 00:49:00.002,n,222,3.6,3.6,3.6,23.2,76.3,1007.42,0,0,0,0,0.027008
2018/01/30 00:50:00.000,n,180,11.16,10.08,11.88,23.2,75.8,1007.32,0,0,0,0,0.025253
2018/01/30 00:51:00.000,n,197,8.64,7.2,10.440002,23.2,75.9,1007.32,0,0,0,0,0.022659
2018/01/30 00:52:00.011,n,178,7.92,7.56,9,23.2,75.7,1007.32,0,0,0,0,0.026131
2018/01/30 00:53:00.009,n,208,8.28,7.56,8.64,23.2,75.9,1007.32,0,0,0,0,0.024376
2018/01/30 00:54:00.006,n,158,2.88,2.88,3.24,23.2,75.9,1007.32,0,0,0,0,0.024376
2018/01/30 00:55:00.000,n,168,5.04,2.52,6.84,23.2,76,1007.32,0,0,0,0,0.023537
2018/01/30 00:56:00.000,n,197,2.88,2.16,3.24,23.2,76.1,1007.32,0,0,0,0,0.022659
2018/01/30 00:57:00.000,n,174,3.6,2.88,3.96,23.2,76,1007.32,0,0,0,0,0.026131
2018/01/30 00:58:00.000,n,173,6.48,6.12,6.84,23.2,76.1,1007.22,0,0,0,0,0.025253
2018/01/30 00:59:00.008,n,170,2.52,2.16,3.24,23.2,76.3,1007.32,0,0,0,0,0.01915
2018/01/30 01:00:00.005,n,253,5.4,5.04,6.12,23.2,76,1007.32,0,0,0,0,0.021782
2018/01/30 01:01:00.002,n,294,1.08,0,2.16,23.2,75.6,1007.22,0,0,0,0,0.025253
2018/01/30 01:02:00.000,n,244,3.24,2.16,5.04,23.2,75.7,1007.32,0,0,0,0,0.021782
2018/01/30 01:03:00.013,n,182,7.92,7.2,8.64,23.1,75.6,1007.32,0,0,0,0,0.024376
2018/01/30 01:04:00.000,n,186,5.76,5.4,7.2,23.1,75.5,1007.32,0,0,0,0,0.023537
2018/01/30 01:05:00.000,n,179,6.84,5.76,9,23.1,75.3,1007.22,0,0,0,0,0.021782
2018/01/30 01:06:00.000,n,217,2.88,2.52,3.6,23.1,75.6,1007.22,0,0,0,0,0.022659
2018/01/30 01:07:00.002,n,243,2.88,2.52,3.6,23.1,75.6,1007.22,0,0,0,0,0.020943
2018/01/30 01:08:00.000,n,255,5.76,5.04,6.12,23.1,75.6,1007.22,0,0,0,0,0.01915
2018/01/30 01:09:00.000,n,189,5.4,5.04,5.76,23.1,75.4,1007.22,0,0,0,0,0.018311
2018/01/30 01:10:00.010,n,196,3.6,2.16,4.32,23.1,75.5,1007.12,0,0,0,0,0.020027
2018/01/30 01:11:00.006,n,46,0.72,0.36,0.72,23.1,75.7,1007.12,0,0,0,0,0.018311
2018/01/30 01:12:00.004,n,246,5.76,5.04,6.48,23.1,75.3,1007.12,0,0,0,0,0.017433
2018/01/30 01:13:00.000,n,217,3.6,2.88,3.96,23.1,75.4,1007.12,0,0,0,0,0.03479
2018/01/30 01:14:00.000,n,161,2.16,1.8,2.88,23.1,75.4,1007.12,0,0,0,0,0.033913
2018/01/30 01:15:00.000,n,220,8.64,8.28,9,23.1,75.2,1007.12,0,0,0,0,0.032196
2018/01/30 01:16:00.000,n,179,11.52,10.440002,12.24,23.1,75.1,1007.12,0,0,0,0,0.028725
2018/01/30 01:17:00.006,n,191,3.96,2.88,4.68,23,75.2,1007.12,0,0,0,0,0.028725
2018/01/30 01:18:00.003,n,177,7.2,6.12,8.28,23,75.1,1007.12,0,0,0,0,0.031319
2018/01/30 01:19:00.000,n,183,6.48,5.04,7.56,23,75.2,1007.12,0,0,0,0,0.033913
2018/01/30 01:20:00.014,n,161,8.64,7.92,9,23,75.2,1007.02,0,0,0,0,0.026131
2018/01/30 01:21:00.011,n,161,4.32,3.24,5.76,23,75.2,1007.12,0,0,0,0,0.029564
2018/01/30 01:22:00.000,n,205,4.32,3.24,6.12,23,75.2,1007.12,0,0,0,0,0.02697
2018/01/30 01:23:00.000,n,190,5.76,3.96,6.84,23,75.2,1007.12,0,0,0,0,0.028725
2018/01/30 01:24:00.004,n,194,5.4,4.32,6.48,23,75.2,1007.12,0,0,0,0,0.025215
2018/01/30 01:25:00.001,n,208,2.88,2.16,2.88,23,75.2,1007.02,0,0,0,0,0.030479
2018/01/30 01:26:00.000,n,206,5.4,3.6,6.12,23,75.1,1007.02,0,0,0,0,0.028725
2018/01/30 01:27:00.000,n,188,5.04,3.96,5.4,23,75.1,1007.02,0,0,0,0,0.027847
2018/01/30 01:28:00.009,n,210,6.84,5.76,7.56,23,75,1007.02,0,0,0,0,0.025215
2018/01/30 01:29:00.007,n,179,6.12,5.04,7.2,23,75.2,1007.02,0,0,0,0,0.030479
2018/01/30 01:30:00.004,n,203,5.04,4.68,5.4,23,75.1,1006.92,0,0,0,0,0.021744
2018/01/30 01:31:00.001,n,180,6.48,5.04,7.2,23,75.1,1006.92,0,0,0,0,0.023499
2018/01/30 01:32:00.000,n,172,9.72,6.84,10.440002,23,74.8,1006.92,0,0,0,0,0.024338
2018/01/30 01:33:00.000,n,188,3.96,3.6,4.32,23,75.1,1006.92,0,0,0,0,0.027847
2018/01/30 01:34:00.000,n,156,5.04,3.96,5.76,23,75,1006.92,0,0,0,0,0.023499
2018/01/30 01:35:00.005,n,193,9.72,8.64,10.440002,23,75,1006.92,0,0,0,0,0.023499
2018/01/30 01:36:00.002,n,193,4.32,3.96,5.04,23,74.9,1006.92,0,0,0,0,0.03479
2018/01/30 01:37:00.000,n,216,4.32,3.6,6.12,23,75,1006.92,0,0,0,0,0.023499
2018/01/30 01:38:00.013,n,179,6.48,5.76,7.56,23,74.9,1006.92,0,0,0,0,0.024338
2018/01/30 01:39:00.010,n,178,4.68,2.52,7.56,23,74.7,1006.82,0,0,0,0,0.024338
2018/01/30 01:40:00.000,n,170,2.52,2.16,2.88,23,75,1006.92,0,0,0,0,0.025215
2018/01/30 01:41:00.000,n,245,4.32,3.96,5.04,23.1,74.9,1006.92,0,0,0,0,0.029564
2018/01/30 01:42:00.000,n,216,3.24,0.72,6.12,23.1,74.6,1006.92,0,0,0,0,0.026131
2018/01/30 01:43:00.000,n,131,1.08,0.36,1.8,23.1,74.9,1006.92,0,0,0,0,0.02697
2018/01/30 01:44:00.000,n,238,1.8,1.08,2.16,23.1,74.5,1006.92,0,0,0,0,0.023499
2018/01/30 01:45:00.008,n,214,1.08,0.36,2.52,23.1,74.8,1006.92,0,0,0,0,0.027847
2018/01/30 01:46:00.006,n,249,6.12,5.4,7.2,23.1,75.4,1006.92,0,0,0,0,0.024338
2018/01/30 01:47:00.003,n,230,4.68,2.88,5.4,23.1,75.1,1006.92,0,0,0,0,0.025215
2018/01/30 01:48:00.001,n,196,3.96,1.8,4.68,23.1,74.4,1006.92,0,0,0,0,0.023499
2018/01/30 01:49:00.000,n,254,5.76,4.68,6.12,23.1,74.9,1006.92,0,0,0,0,0.025215
2018/01/30 01:50:00.000,n,308,1.8,1.08,2.16,23.1,74.8,1006.92,0,0,0,0,0.026131
2018/01/30 01:51:00.000,n,245,2.16,0.72,2.88,23.1,74.6,1006.92,0,0,0,0,0.025215
2018/01/30 01:52:00.000,n,225,3.6,3.6,4.32,23.1,75,1006.92,0,0,0,0,0.025215
2018/01/30 01:53:00.004,n,237,4.32,3.6,5.04,23.1,75.5,1006.92,0,0,0,0,0.026131
2018/01/30 01:54:00.001,n,255,4.68,3.6,5.76,23.1,75.4,1006.92,0,0,0,0,0.023499
2018/01/30 01:55:00.000,n,258,7.2,4.32,8.64,23.1,75.9,1006.82,0,0,0,0,0.029564
2018/01/30 01:56:00.011,n,250,5.76,5.4,6.48,23.1,75.6,1006.82,0,0,0,0,0.02697
2018/01/30 01:57:00.008,n,245,4.68,3.6,5.4,23.1,75.9,1006.82,0,0,0,0,0.026131
2018/01/30 01:58:00.000,n,249,6.84,5.76,8.28,23.1,75.8,1006.82,0,0,0,0,0.02697
2018/01/30 01:59:00.001,n,248,5.4,5.04,5.76,23.1,76,1006.92,0,0,0,0,0.023499
2018/01/30 02:00:00.000,n,268,7.2,5.04,8.64,23.1,76.8,1006.92,0,0,0,0,0.033913
2018/01/30 02:01:00.000,n,272,6.84,5.4,7.92,23.1,76.7,1006.92,0,0,0,0,0.023499
2018/01/30 02:02:00.008,n,234,6.12,5.4,6.48,23,76.6,1006.92,0,0,0,0,0.02697
2018/01/30 02:03:00.006,n,255,10.8,10.440002,11.16,23,76.6,1006.82,0,0,0,0,0.027847
2018/01/30 02:04:00.002,n,238,2.88,1.8,3.6,23,77.3,1006.82,0,0,0,0,0.027847
2018/01/30 02:05:00.000,n,265,8.28,7.2,9.72,23,76.9,1006.82,0,0,0,0,0.022621
2018/01/30 02:06:00.014,n,257,8.64,7.56,9.36,23,77.1,1006.82,0,0,0,0,0.024338
2018/01/30 02:07:00.000,n,253,6.12,5.04,7.2,22.9,77,1006.82,0,0,0,0,0.024338
2018/01/30 02:08:00.000,n,218,5.04,4.32,5.76,22.9,77.5,1006.82,0,0,0,0,0.026131
2018/01/30 02:09:00.005,n,253,4.32,3.24,5.04,22.9,77.2,1006.82,0,0,0,0,0.024338
2018/01/30 02:10:00.002,n,241,4.32,2.88,6.48,22.9,77.5,1006.82,0,0,0,0,0.026131
2018/01/30 02:11:00.000,n,244,2.52,1.8,2.88,22.9,77.5,1006.82,0,0,0,0,0.022621
2018/01/30 02:12:00.000,n,243,5.4,5.04,6.48,22.8,77.4,1006.82,0,0,0,0,0.029564
2018/01/30 02:13:00.010,n,235,5.4,5.04,7.92,22.8,77.8,1006.72,0,0,0,0,0.024338
2018/01/30 02:14:00.012,n,249,5.76,5.04,6.12,22.8,77.5,1006.72,0,0,0,0,0.028687
2018/01/30 02:15:00.006,n,219,3.96,3.6,4.32,22.8,77.6,1006.72,0,0,0,0,0.024338
2018/01/30 02:16:00.000,n,261,4.32,1.08,5.4,22.8,78.6,1006.72,0,0,0,0,0.026093
2018/01/30 02:17:00.000,n,288,2.52,1.8,2.88,22.8,78,1006.62,0,0,0,0,0.025177
2018/01/30 02:18:00.000,n,213,1.8,1.08,2.16,22.8,77.7,1006.62,0,0,0,0,0.024338
2018/01/30 02:19:00.000,n,229,5.76,5.04,6.12,22.8,77.9,1006.62,0,0,0,0,0.02697
2018/01/30 02:20:00.007,n,163,1.8,1.44,2.16,22.8,78.2,1006.62,0,0,0,0,0.029564
2018/01/30 02:21:00.004,n,247,1.44,1.08,1.8,22.8,78,1006.62,0,0,0,0,0.024338
2018/01/30 02:22:00.001,n,170,0.72,0.36,1.08,22.8,77.8,1006.62,0,0,0,0,0.029564
2018/01/30 02:23:00.014,n,225,1.8,1.44,2.52,22.8,77.7,1006.62,0,0,0,0,0.024338
2018/01/30 02:24:00.011,n,185,3.6,3.24,4.32,22.8,77.5,1006.62,0,0,0,0,0.022583
2018/01/30 02:25:00.000,n,255,3.6,3.24,3.96,22.8,77.5,1006.62,0,0,0,0,0.024338
2018/01/30 02:26:00.000,n,198,2.88,2.88,3.24,22.8,77.5,1006.62,0,0,0,0,0.024338
2018/01/30 02:27:00.002,n,246,5.04,3.6,6.48,22.8,77.9,1006.62,0,0,0,0,0.022583
2018/01/30 02:28:00.000,n,215,2.16,1.44,2.88,22.8,77.4,1006.62,0,0,0,0,0.020866
2018/01/30 02:29:00.000,n,177,4.68,3.96,5.4,22.8,76.9,1006.62,0,0,0,0,0.022583
2018/01/30 02:30:00.009,n,166,6.84,6.12,7.56,22.8,77,1006.52,0,0,0,0,0.020866
2018/01/30 02:31:00.006,n,238,3.96,3.6,4.68,22.8,76.9,1006.52,0,0,0,0,0.022583
2018/01/30 02:32:00.003,n,176,4.32,3.96,5.04,22.8,76.9,1006.52,0,0,0,0,0.021744
2018/01/30 02:33:00.000,n,182,6.84,6.48,7.56,22.8,76.6,1006.52,0,0,0,0,0.026093
2018/01/30 02:34:00.000,n,179,5.4,4.68,6.12,22.8,76.5,1006.52,0,0,0,0,0.024376
2018/01/30 02:35:00.000,n,138,3.6,1.8,5.4,22.8,76,1006.52,0,0,0,0,0.026093
2018/01/30 02:36:00.004,n,184,4.32,2.52,5.76,22.8,76.2,1006.52,0,0,0,0,0.030441
2018/01/30 02:37:00.001,n,163,1.8,1.08,2.52,22.8,76,1006.52,0,0,0,0,0.033913
2018/01/30 02:38:00.000,n,190,7.56,7.2,8.64,22.8,76,1006.52,0,0,0,0,0.027847
2018/01/30 02:39:00.000,n,169,12.24,9.72,14.04,22.8,75.4,1006.52,0,0,0,0,0.024376
2018/01/30 02:40:00.009,n,197,9.36,8.28,10.08,22.8,75.4,1006.52,0,0,0,0,0.025253
2018/01/30 02:41:00.007,n,198,6.48,5.04,9,22.8,75.2,1006.52,0,0,0,0,0.027847
2018/01/30 02:42:00.004,n,129,3.96,2.88,5.04,22.8,75.2,1006.52,0,0,0,0,0.026093
2018/01/30 02:43:00.000,n,232,4.68,3.96,5.4,22.8,75.3,1006.52,0,0,0,0,0.029602
2018/01/30 02:44:00.000,n,174,13.68,11.16,16.2,22.8,75.1,1006.42,0,0,0,0,0.028687
2018/01/30 02:45:00.000,n,247,5.4,5.04,6.12,22.8,75.2,1006.42,0,0,0,0,0.029602
2018/01/30 02:46:00.000,n,186,1.8,1.08,2.52,22.8,75.4,1006.42,0,0,0,0,0.02697
2018/01/30 02:47:00.005,n,247,1.44,1.08,2.16,22.8,75.4,1006.42,0,0,0,0,0.027847
2018/01/30 02:48:00.003,n,206,4.68,3.24,5.4,22.8,75.2,1006.42,0,0,0,0,0.02697
2018/01/30 02:49:00.000,n,259,5.76,5.04,6.12,22.8,75.6,1006.42,0,0,0,0,0.027847
2018/01/30 02:50:00.000,n,202,2.16,1.08,2.88,22.8,75.1,1006.42,0,0,0,0,0.02346
2018/01/30 02:51:00.011,n,272,3.96,3.24,5.4,22.8,75,1006.42,0,0,0,0,0.022621
2018/01/30 02:52:00.000,n,229,5.04,4.68,5.4,22.8,75,1006.52,0,0,0,0,0.025253
2018/01/30 02:53:00.000,n,222,3.96,2.16,5.04,22.8,75.4,1006.52,0,0,0,0,0.024376
2018/01/30 02:54:00.004,n,181,2.52,2.52,2.88,22.8,75,1006.42,0,0,0,0,0.024376
2018/01/30 02:55:00.001,n,129,4.68,2.88,6.84,22.8,75,1006.42,0,0,0,0,0.026093
2018/01/30 02:56:00.000,n,251,5.04,4.32,5.4,22.8,75.3,1006.42,0,0,0,0,0.020866
2018/01/30 02:57:00.000,n,228,5.76,5.04,6.12,22.8,75.4,1006.42,0,0,0,0,0.025253
2018/01/30 02:58:00.008,n,194,5.04,4.32,7.2,22.8,75.1,1006.42,0,0,0,0,0.025253
2018/01/30 02:59:00.005,n,156,3.6,2.88,4.68,22.8,75.2,1006.42,0,0,0,0,0.026093
2018/01/30 03:00:00.002,n,120,1.44,1.08,1.8,22.8,75.1,1006.42,0,0,0,0,0.021744
2018/01/30 03:01:00.000,n,152,5.76,4.68,6.12,22.8,75,1006.42,0,0,0,0,0.024376
2018/01/30 03:02:00.000,n,192,7.2,6.12,9.36,22.8,74.9,1006.42,0,0,0,0,0.028687
2018/01/30 03:03:00.000,n,175,6.84,6.48,7.56,22.8,74.9,1006.42,0,0,0,0,0.025253
2018/01/30 03:04:00.000,n,194,3.96,1.44,4.68,22.8,74.8,1006.42,0,0,0,0,0.021744
2018/01/30 03:05:00.004,n,183,3.24,1.8,4.32,22.8,74.8,1006.42,0,0,0,0,0.022621
2018/01/30 03:06:00.001,n,166,8.28,6.12,11.16,22.8,74.9,1006.42,0,0,0,0,0.020866
2018/01/30 03:07:00.000,n,186,9,8.28,10.08,22.8,74.8,1006.42,0,0,0,0,0.02346
2018/01/30 03:08:00.013,n,175,9.72,7.2,11.16,22.8,74.9,1006.42,0,0,0,0,0.02346
2018/01/30 03:09:00.010,n,135,3.6,1.08,6.84,22.7,75,1006.32,0,0,0,0,0.022621
2018/01/30 03:10:00.000,n,229,4.32,3.96,5.04,22.7,74.9,1006.32,0,0,0,0,0.022621
2018/01/30 03:11:00.000,n,198,5.76,5.04,7.2,22.7,75,1006.32,0,0,0,0,0.022621
2018/01/30 03:12:00.000,n,184,9.72,5.4,12.96,22.7,75,1006.22,0,0,0,0,0.027885
2018/01/30 03:13:00.000,n,177,7.56,6.84,8.64,22.7,75,1006.22,0,0,0,0,0.032234
2018/01/30 03:14:00.008,n,175,7.56,6.12,8.64,22.7,75.1,1006.22,0,0,0,0,0.029602
2018/01/30 03:15:00.005,n,196,8.64,8.28,9.72,22.7,75.2,1006.12,0,0,0,0,0.033112
2018/01/30 03:16:00.002,n,184,11.88,8.64,14.4,22.7,75.2,1006.12,0,0,0,0,0.030479
2018/01/30 03:17:00.000,n,182,10.440002,9.72,10.8,22.7,75.3,1006.12,0,0,0,0,0.031357
2018/01/30 03:18:00.013,n,204,6.12,5.76,6.84,22.6,75.3,1006.02,0,0,0,0,0.033951
2018/01/30 03:19:00.000,n,213,6.84,5.4,8.28,22.7,75.4,1006.02,0,0,0,0,0.034828
2018/01/30 03:20:00.000,n,200,4.68,3.24,5.76,22.6,75.3,1006.02,0,0,0,0,0.033951
2018/01/30 03:21:00.005,n,169,9,7.2,11.52,22.6,75.4,1006.02,0,0,0,0,0.031357
2018/01/30 03:22:00.002,n,123,1.8,0.72,3.24,22.6,75.5,1006.02,0,0,0,0,0.028763
2018/01/30 03:23:00.000,n,74,3.24,1.08,8.64,22.6,75.5,1006.02,0,0,0,0,0.031357
2018/01/30 03:24:00.005,n,247,3.24,1.8,4.68,22.6,75.7,1006.02,0,0,0,0,0.029564
2018/01/30 03:25:00.000,n,165,15.48,12.24,19.08,22.6,75.4,1006.02,0,0,0,0,0.023499
2018/01/30 03:26:00.014,n,187,6.48,5.04,8.64,22.6,75.4,1006.02,0,0,0,0,0.02697
2018/01/30 03:27:00.011,n,256,6.48,4.68,6.84,22.6,75.4,1006.02,0,0,0,0,0.025215
2018/01/30 03:28:00.000,n,183,4.68,4.32,5.04,22.6,75.6,1006.02,0,0,0,0,0.020905
2018/01/30 03:29:00.000,n,273,3.6,2.52,5.04,22.6,76,1006.02,0,0,0,0,0.021744
2018/01/30 03:30:00.001,n,229,2.16,1.44,2.52,22.6,75.8,1006.02,0,0,0,0,0.019989
2018/01/30 03:31:00.000,n,153,1.44,0.72,2.16,22.6,75.8,1005.92,0,0,0,0,0.01915
2018/01/30 03:32:00.000,n,231,3.96,3.24,4.68,22.6,75.6,1005.92,0,0,0,0,0.020905
2018/01/30 03:33:00.009,n,264,3.96,2.52,5.4,22.6,75.8,1005.92,0,0,0,0,0.019989
2018/01/30 03:34:00.006,n,113,2.16,1.08,5.04,22.6,75.6,1005.92,0,0,0,0,0.024338
2018/01/30 03:35:00.003,n,165,5.4,3.24,6.48,22.6,75.7,1005.92,0,0,0,0,0.02697
2018/01/30 03:36:00.000,n,253,3.96,2.88,4.68,22.6,75.7,1005.92,0,0,0,0,0.024338
2018/01/30 03:37:00.000,n,209,2.88,2.52,2.88,22.6,76,1005.92,0,0,0,0,0.021744
2018/01/30 03:38:00.000,n,137,5.76,1.08,9,22.6,76,1005.92,0,0,0,0,0.023499
2018/01/30 03:39:00.000,n,250,3.6,3.24,4.32,22.6,75.7,1005.92,0,0,0,0,0.026131
2018/01/30 03:40:00.000,n,227,4.68,4.32,5.4,22.5,75.7,1005.92,0,0,0,0,0.026131
2018/01/30 03:41:00.004,n,267,2.88,1.08,6.12,22.5,76.2,1005.92,0,0,0,0,0.01915
2018/01/30 03:42:00.001,n,178,2.16,1.8,2.16,22.5,76.1,1005.92,0,0,0,0,0.028725
2018/01/30 03:43:00.000,n,169,1.44,1.08,2.52,22.5,76.3,1005.92,0,0,0,0,0.033073
2018/01/30 03:44:00.011,n,148,2.16,1.08,2.88,22.5,76,1005.92,0,0,0,0,0.031319
2018/01/30 03:45:00.010,n,280,6.48,5.76,7.92,22.5,76.3,1005.92,0,0,0,0,0.033073
2018/01/30 03:46:00.000,n,354,0.72,0,1.08,22.5,76.2,1005.92,0,0,0,0,0.030441
2018/01/30 03:47:00.000,n,180,3.6,2.52,4.32,22.5,76.2,1006.02,0,0,0,0,0.031319
2018/01/30 03:48:00.001,n,216,3.6,1.8,5.04,22.5,76,1006.02,0,0,0,0,0.029602
2018/01/30 03:49:00.000,n,235,6.48,5.4,7.56,22.5,76,1006.02,0,0,0,0,0.032196
2018/01/30 03:50:00.000,n,242,2.52,1.08,3.96,22.5,76,1006.02,0,0,0,0,0.027847
2018/01/30 03:51:00.009,n,64,1.08,0.72,2.16,22.5,76.6,1006.02,0,0,0,0,0.032196
2018/01/30 03:52:00.005,n,221,5.04,3.96,5.76,22.5,76.1,1006.02,0,0,0,0,0.033073
2018/01/30 03:53:00.004,n,250,6.48,6.12,6.84,22.5,76.4,1006.02,0,0,0,0,0.030441
2018/01/30 03:54:00.001,n,264,7.2,6.12,8.28,22.5,76.4,1006.02,0,0,0,0,0.028725
2018/01/30 03:55:00.000,n,246,5.76,5.04,6.48,22.5,76.4,1006.12,0,0,0,0,0.033951
2018/01/30 03:56:00.000,n,287,5.4,3.6,7.2,22.5,77.3,1006.12,0,0,0,0,0.026093
2018/01/30 03:57:00.000,n,241,6.84,5.76,7.2,22.5,76.6,1006.12,0,0,0,0,0.027847
2018/01/30 03:58:00.006,n,254,6.84,5.04,7.56,22.5,77.3,1006.12,0,0,0,0,0.027008
2018/01/30 03:59:00.004,n,233,3.96,3.24,4.32,22.5,77.3,1006.12,0,0,0,0,0.032196
2018/01/30 04:00:00.001,n,241,5.04,4.68,5.4,22.5,77,1006.12,0,0,0,0,0.027008
2018/01/30 04:01:00.000,n,254,8.64,7.2,11.16,22.5,77.6,1006.12,0,0,0,0,0.030441
2018/01/30 04:02:00.011,n,259,8.28,7.2,9.36,22.5,77.6,1006.22,0,0,0,0,0.029602
2018/01/30 04:03:00.009,n,229,3.24,2.16,3.96,22.4,77.6,1006.22,0,0,0,0,0.027847
2018/01/30 04:04:00.000,n,228,2.88,2.52,3.24,22.4,78.1,1006.22,0,0,0,0,0.036545
2018/01/30 04:05:00.000,n,302,0.72,0,1.08,22.4,78,1006.22,0,0,0,0,0.033951
2018/01/30 04:06:00.000,n,246,7.2,6.12,7.56,22.4,78,1006.22,0,0,0,0,0.03479
2018/01/30 04:07:00.000,n,233,5.04,4.68,5.04,22.3,78.1,1006.22,0,0,0,0,0.027847
2018/01/30 04:08:00.000,n,224,4.32,3.6,4.68,22.3,78.3,1006.22,0,0,0,0,0.032196
2018/01/30 04:09:00.006,n,284,7.92,6.12,9.72,22.3,79.2,1006.22,0,0,0,0,0.027847
2018/01/30 04:10:00.004,n,238,3.96,3.6,4.32,22.4,79,1006.22,0,0,0,0,0.027847
2018/01/30 04:11:00.000,n,228,3.24,2.88,3.6,22.3,78.6,1006.32,0,0,0,0,0.027008
2018/01/30 04:12:00.014,n,236,3.96,3.24,5.4,22.3,78.6,1006.32,0,0,0,0,0.028725
2018/01/30 04:13:00.000,n,234,3.24,3.24,3.96,22.3,78.5,1006.32,0,0,0,0,0.03479
2018/01/30 04:14:00.000,n,255,4.68,3.6,5.76,22.3,79.1,1006.32,0,0,0,0,0.026093
2018/01/30 04:15:00.000,n,197,2.52,1.8,2.88,22.3,78.8,1006.32,0,0,0,0,0.027847
2018/01/30 04:16:00.004,n,208,3.24,2.52,3.96,22.3,78.8,1006.32,0,0,0,0,0.026093
2018/01/30 04:17:00.002,n,245,6.12,4.68,6.84,22.3,79.2,1006.32,0,0,0,0,0.024376
2018/01/30 04:18:00.000,n,241,4.68,2.88,5.4,22.3,79,1006.32,0,0,0,0,0.030441
2018/01/30 04:19:00.011,n,274,4.32,2.52,6.12,22.3,79.6,1006.32,0,0,0,0,0.023499
2018/01/30 04:20:00.008,n,213,3.24,1.44,5.04,22.3,79.1,1006.32,0,0,0,0,0.03479
2018/01/30 04:21:00.007,n,244,3.96,3.24,5.04,22.3,78.9,1006.32,0,0,0,0,0.026093
2018/01/30 04:22:00.000,n,271,4.68,1.8,7.56,22.3,79.4,1006.32,0,0,0,0,0.025215
2018/01/30 04:23:00.001,n,228,3.96,3.24,4.68,22.3,78.9,1006.22,0,0,0,0,0.027008
2018/01/30 04:24:00.000,n,236,3.96,3.24,3.96,22.3,79.5,1006.22,0,0,0,0,0.027847
2018/01/30 04:25:00.000,n,221,3.24,2.88,3.6,22.3,78.9,1006.22,0,0,0,0,0.032196
2018/01/30 04:26:00.000,n,235,5.4,4.68,5.76,22.3,78.9,1006.22,0,0,0,0,0.026093
2018/01/30 04:27:00.007,n,231,3.24,2.52,3.96,22.3,78.8,1006.22,0,0,0,0,0.035667
2018/01/30 04:28:00.005,n,214,3.24,2.16,4.32,22.3,78.8,1006.22,0,0,0,0,0.032196
2018/01/30 04:29:00.003,n,236,2.52,1.8,3.6,22.3,78.8,1006.22,0,0,0,0,0.028725
2018/01/30 04:30:00.001,n,246,4.68,3.96,5.4,22.3,78.9,1006.22,0,0,0,0,0.026093
2018/01/30 04:31:00.000,n,236,4.32,3.6,4.68,22.3,79,1006.22,0,0,0,0,0.031319
2018/01/30 04:32:00.000,n,190,2.52,1.8,3.96,22.3,79,1006.22,0,0,0,0,0.033073
2018/01/30 04:33:00.000,n,104,3.6,2.16,5.4,22.3,79,1006.22,0,0,0,0,0.033073
2018/01/30 04:34:00.004,n,238,4.68,3.96,5.76,22.3,78.7,1006.12,0,0,0,0,0.033073
2018/01/30 04:35:00.002,n,17,2.16,1.44,2.88,22.4,79,1006.12,0,0,0,0,0.029602
2018/01/30 04:36:00.000,n,249,3.6,2.88,3.96,22.4,78.7,1006.22,0,0,0,0,0.033073
2018/01/30 04:37:00.012,n,255,4.68,3.24,6.12,22.4,79.1,1006.22,0,0,0,0,0.027008
2018/01/30 04:38:00.010,n,236,5.4,3.96,6.48,22.4,79.3,1006.22,0,0,0,0,0.027847
2018/01/30 04:39:00.006,n,235,6.12,5.76,6.48,22.4,78.7,1006.22,0,0,0,0,0.027008
2018/01/30 04:40:00.000,n,243,6.12,4.68,7.56,22.4,78.4,1006.32,0,0,0,0,0.033951
2018/01/30 04:41:00.000,n,171,1.44,1.08,2.16,22.4,78.2,1006.32,0,0,0,0,0.027847
2018/01/30 04:42:00.000,n,262,9,8.28,10.440002,22.4,78.3,1006.32,0,0,0,0,0.030441
2018/01/30 04:43:00.000,n,184,5.04,4.32,5.4,22.4,78.3,1006.32,0,0,0,0,0.027847
2018/01/30 04:44:00.008,n,204,2.52,1.44,3.96,22.4,78.4,1006.42,0,0,0,0,0.027008
2018/01/30 04:45:00.005,n,198,2.16,1.8,2.16,22.4,78.3,1006.32,0,0,0,0,0.032196
2018/01/30 04:46:00.002,n,201,2.52,2.16,2.88,22.4,78.3,1006.32,0,0,0,0,0.031319
2018/01/30 04:47:00.000,n,191,4.32,3.6,5.4,22.4,78.3,1006.42,0,0,0,0,0.033951
2018/01/30 04:48:00.013,n,215,7.56,5.4,9.72,22.4,77.9,1006.42,0,0,0,0,0.033073
2018/01/30 04:49:00.000,n,193,5.76,5.04,6.84,22.4,77.9,1006.42,0,0,0,0,0.032196
2018/01/30 04:50:00.000,n,234,1.8,1.44,2.88,22.4,77.7,1006.42,0,0,0,0,0.029602
2018/01/30 04:51:00.000,n,259,1.44,1.08,3.24,22.4,77.4,1006.42,0,0,0,0,0.031319
2018/01/30 04:52:00.000,n,253,5.76,4.68,6.48,22.4,77.7,1006.42,0,0,0,0,0.037422
2018/01/30 04:53:00.005,n,135,2.88,1.8,3.6,22.5,77.7,1006.42,0,0,0,0,0.043488
2018/01/30 04:54:00.003,n,179,1.44,0.72,2.16,22.5,77.4,1006.42,0,0,0,0,0.036545
2018/01/30 04:55:00.000,n,215,3.24,2.52,3.6,22.5,77.4,1006.42,0,0,0,0,0.046997